Wind_Speed
12 12 13 14 15 16 17 18 20 21 21 22 22 21 19 18 18 16 15 13 12 12 12 11 12 10 9 9 9 9 9 9
15 16 15 15 16 17 18 18 18 19 20 21 23 24 22 22 21 20 21 19 16 16 15 14 13 14 12 11 11 10 10 9
15 14 14 13 13 14 15 16 18 17 17 18 20 22 24 25 24 23 23 25 23 21 19 18 17 16 16 15 14 13 12 11
9 9 9 10 10 11 13 14 15 16 18 19 20 20 21 23 25 26 26 26 27 26 25 24 23 21 20 20 18 17 15 15
10 10 10 12 13 14 15 15 15 16 17 18 19 19 20 23 24 25 26 28 29 28 27 28 29 28 26 25 23 22 20 18
12 13 14 14 15 16 17 16 14 13 12 12 13 14 16 18 21 25 28 29 30 28 30 30 31 33 32 31 30 27 26 24
16 18 19 18 17 16 15 16 15 16 17 18 21 22 21 21 22 23 24 25 30 34 34 32 34 35 36 36 35 34 32 31
19 20 21 21 22 23 21 19 19 20 23 25 26 27 27 28 29 29 30 30 31 31 34 37 37 35 37 37 39 39 38 36
22 23 23 23 24 25 26 27 28 29 30 31 32 33 32 32 32 34 35 36 36 35 35 36 40 41 40 37 40 41 42 43
25 25 25 24 26 27 27 28 30 33 35 35 35 33 33 35 37 39 39 40 40 40 39 38 38 42 46 46 44 42 43 45
26 26 26 27 28 29 30 32 34 35 35 35 35 36 37 38 39 41 43 43 44 43 42 41 40 41 45 49 52 50 48 48
26 26 26 27 28 29 31 31 32 33 34 35 37 39 40 40 40 40 40 40 40 40 40 40 42 44 47 49 51 55 56 51
25 25 26 27 28 27 28 30 31 33 34 36 37 38 37 37 38 39 39 39 39 39 41 42 41 43 46 50 53 52 54 57
24 25 26 26 27 29 30 31 32 34 35 36 36 36 35 36 37 37 38 38 39 40 42 44 45 47 49 50 51 52 49 57
24 24 26 27 27 30 31 32 34 32 31 30 30 30 32 34 36 36 37 39 39 39 41 44 47 47 48 51 55 53 53 50
25 26 26 26 28 29 31 30 28 28 28 29 30 31 32 33 34 36 36 37 38 39 40 42 45 49 48 48 52 55 56 58
25 25 25 27 29 30 29 28 28 29 30 29 29 29 30 32 33 34 35 37 38 41 43 42 46 47 46 47 49 51 52 54
22 23 25 28 31 31 31 31 30 31 32 32 32 31 31 31 32 33 34 37 38 40 41 42 46 45 43 44 46 48 49 51
22 24 26 29 31 31 31 31 31 31 31 32 32 32 32 33 33 33 35 36 38 39 38 41 45 45 44 45 45 46 47 48
22 24 26 29 31 31 30 29 30 30 31 32 33 33 33 35 35 35 35 36 37 37 36 39 42 43 43 43 45 44 43 44
Wind_Direction
321 325 323 320 315 309 305 301 300 297 294 288 282 279 279 279 276 274 273 275 278 280 286 289 290 283 285 291 297 305 308 310
316 311 306 300 294 293 295 297 298 296 294 291 287 282 281 283 284 285 285 273 267 269 271 275 277 279 273 273 280 284 291 296
305 304 302 302 300 298 298 297 300 301 300 299 296 291 287 284 283 283 283 282 279 271 266 264 265 267 267 265 263 268 274 278
326 328 329 329 327 322 316 312 307 300 296 295 295 295 293 290 285 283 283 284 285 282 280 276 271 266 260 255 256 255 260 268
335 336 334 335 335 333 328 327 319 311 303 299 298 299 297 291 286 288 284 284 281 279 276 275 279 273 269 263 254 254 252 253
330 330 327 328 327 326 332 339 342 343 348 342 336 329 324 315 306 299 294 291 288 285 275 269 267 268 267 265 263 251 250 250
321 327 323 320 321 323 320 324 325 324 321 319 319 318 320 323 322 319 313 306 294 286 284 280 268 265 266 263 262 261 253 248
314 316 315 311 314 317 317 315 313 314 313 313 312 311 309 307 309 312 313 311 308 301 287 277 276 272 264 263 261 261 260 255
304 306 306 304 303 305 308 311 313 316 316 314 314 314 312 309 306 307 308 308 306 303 296 289 275 269 267 265 259 258 259 261
296 298 299 299 299 302 304 305 308 311 314 315 315 313 310 309 310 312 312 310 307 302 296 289 281 273 266 264 263 257 254 256
292 296 298 300 303 304 307 311 314 315 315 314 314 314 315 314 312 311 309 309 307 304 299 291 282 273 268 263 261 259 258 253
289 291 293 297 304 310 314 316 317 318 320 321 320 319 318 315 312 309 307 306 303 300 296 291 287 279 269 265 260 258 256 256
287 294 303 308 309 311 314 318 321 323 322 321 318 316 312 309 307 307 306 303 299 296 294 292 287 285 282 271 266 261 257 254
293 298 302 305 308 314 318 320 322 322 320 316 313 309 307 306 305 303 301 299 297 296 294 292 290 289 287 284 276 264 266 256
293 300 305 312 316 319 320 322 320 317 313 309 307 306 305 306 306 305 304 303 302 301 301 299 296 292 287 285 283 277 266 260
294 301 308 312 316 318 320 317 314 314 315 316 318 318 316 313 311 310 310 309 307 304 304 300 300 296 289 281 279 278 279 269
295 302 308 313 318 320 318 317 319 318 316 315 313 313 314 312 310 308 306 303 301 303 303 302 306 301 290 283 275 272 272 274
291 300 310 318 322 321 318 317 318 317 319 318 318 315 316 313 310 308 308 309 306 305 305 305 309 302 291 286 282 277 273 269
291 302 312 320 321 319 317 316 316 317 318 319 319 318 317 315 313 313 312 309 306 304 304 307 311 307 298 291 287 281 276 271
292 304 313 319 320 316 315 315 317 318 319 320 320 318 317 316 315 315 315 313 308 303 301 304 311 309 303 296 290 284 281 276
Height
3176 3175 3174 3173 3172 3171 3169 3168 3167 3165 3164 3163 3162 3160 3159 3158 3156 3154 3153 3153 3152 3151 3150 3150 3149 3147 3145 3144 3143 3141 3139 3138
3174 3172 3171 3170 3169 3167 3165 3164 3163 3162 3161 3160 3158 3157 3156 3155 3154 3152 3151 3150 3148 3148 3146 3146 3145 3145 3143 3142 3141 3140 3138 3137
3171 3169 3167 3166 3165 3164 3162 3160 3159 3158 3157 3156 3155 3154 3153 3152 3151 3150 3148 3147 3146 3144 3143 3141 3140 3140 3141 3140 3138 3137 3136 3134
3168 3166 3165 3164 3162 3161 3159 3157 3155 3154 3153 3152 3151 3150 3149 3148 3147 3145 3144 3143 3142 3141 3140 3139 3138 3136 3135 3135 3135 3133 3133 3132
3165 3163 3162 3161 3159 3158 3157 3155 3153 3151 3150 3149 3147 3146 3145 3144 3142 3140 3139 3137 3136 3136 3135 3135 3135 3133 3132 3131 3130 3130 3129 3128
3162 3161 3159 3158 3156 3154 3153 3151 3150 3148 3147 3146 3144 3142 3141 3139 3138 3136 3134 3132 3130 3129 3129 3129 3128 3128 3127 3126 3126 3124 3124 3123
3159 3157 3155 3154 3152 3151 3150 3148 3146 3145 3144 3142 3140 3139 3137 3135 3133 3131 3129 3126 3124 3122 3121 3121 3120 3120 3120 3120 3119 3119 3118 3117
3156 3154 3153 3151 3149 3147 3146 3144 3142 3140 3138 3136 3135 3133 3131 3129 3127 3125 3123 3121 3118 3116 3114 3113 3112 3111 3111 3111 3112 3112 3111 3111
3152 3151 3149 3147 3146 3144 3142 3139 3137 3135 3133 3131 3128 3126 3124 3121 3119 3117 3115 3113 3111 3108 3106 3104 3102 3102 3102 3102 3101 3102 3103 3103
3146 3146 3144 3143 3141 3138 3136 3134 3131 3128 3125 3123 3120 3118 3116 3113 3110 3108 3106 3103 3100 3098 3096 3094 3091 3090 3090 3091 3091 3091 3092 3094
3142 3141 3140 3138 3135 3133 3130 3127 3124 3122 3119 3116 3113 3110 3107 3104 3101 3098 3096 3093 3090 3087 3085 3081 3080 3078 3076 3077 3078 3079 3080 3082
3137 3136 3134 3132 3130 3127 3124 3121 3118 3115 3111 3108 3105 3101 3098 3094 3091 3088 3085 3081 3079 3076 3073 3071 3067 3065 3063 3062 3063 3064 3067 3068
3132 3131 3129 3127 3125 3123 3120 3116 3112 3108 3104 3100 3096 3092 3089 3085 3082 3078 3074 3071 3069 3066 3062 3059 3058 3053 3049 3048 3048 3050 3052 3054
3126 3124 3123 3122 3120 3117 3114 3111 3107 3103 3098 3094 3090 3085 3081 3077 3073 3069 3065 3063 3060 3056 3053 3049 3046 3042 3037 3034 3031 3036 3039 3035
3120 3118 3117 3115 3113 3110 3107 3103 3099 3095 3090 3086 3082 3078 3073 3069 3064 3060 3056 3053 3050 3047 3043 3039 3034 3033 3029 3023 3017 3015 3019 3025
3114 3112 3110 3108 3106 3103 3099 3096 3091 3087 3082 3078 3073 3068 3063 3059 3055 3051 3047 3044 3041 3038 3034 3030 3025 3019 3018 3015 3009 3003 2998 2998
3108 3107 3105 3102 3099 3095 3091 3087 3082 3078 3074 3070 3066 3062 3057 3052 3048 3045 3041 3037 3033 3028 3023 3019 3014 3008 3003 3000 2998 2994 2991 2986
3103 3102 3099 3096 3092 3088 3084 3079 3075 3071 3066 3061 3057 3053 3049 3045 3042 3037 3032 3027 3022 3018 3013 3007 3002 2997 2992 2988 2985 2982 2980 2977
3098 3095 3093 3090 3086 3081 3077 3073 3069 3065 3060 3055 3050 3045 3041 3037 3032 3028 3023 3019 3013 3008 3003 2997 2991 2985 2981 2977 2973 2970 2967 2966
3091 3089 3086 3084 3080 3076 3072 3067 3064 3059 3054 3048 3043 3038 3033 3028 3023 3019 3015 3010 3004 2998 2993 2987 2981 2976 2970 2966 2961 2957 2955 2953